Volver al catálogo

STARLINK-11440

ActivoComunicacionesVLEO
NORAD 62513·PAYLOAD·🇺🇸 United States

Lanzado Jan 8, 2025 desde Cape Canaveral Space Force Station

Loading…

Próximos Pases (próximas 24 horas)

TLE

ActualizadoSource: CelesTrak SupGP

Época: Sep 15, 2026, 02:29 UTC

1 62513C 25004C   26258.10395833 -.00124760  00000+0 -96912-3 0  2582
2 62513  43.0008   9.1962 0001832 265.5932 191.0955 15.70897632    16

Sigue STARLINK-11440 en tiempo real con AllMySat

Download on the App Store